TimeEST,TemperatureF,Dew PointF,Humidity,Sea Level PressureIn,VisibilityMPH,Wind Direction,Wind SpeedMPH,Gust SpeedMPH,PrecipitationIn,Events,Conditions,WindDirDegrees,DateUTC
12:15 AM,34.9,14.0,42,30.15,10.0,North,-9999.0,-,N/A,,Clear,0,2013-02-21 05:15:00
12:35 AM,35.2,14.0,42,30.15,10.0,North,-9999.0,-,N/A,,Clear,0,2013-02-21 05:35:00
12:55 AM,34.3,13.8,43,30.15,10.0,NE,4.6,-,N/A,,Clear,40,2013-02-21 05:55:00
1:15 AM,34.2,13.8,43,30.17,10.0,NNE,3.5,-,N/A,,Clear,20,2013-02-21 06:15:00
1:35 AM,32.9,15.6,49,30.17,10.0,Calm,Calm,-,N/A,,Clear,0,2013-02-21 06:35:00
1:55 AM,29.8,18.0,61,30.17,10.0,Calm,Calm,-,N/A,,Clear,0,2013-02-21 06:55:00
2:15 AM,31.5,16.5,54,30.17,10.0,Calm,Calm,-,N/A,,Clear,0,2013-02-21 07:15:00
2:35 AM,28.8,19.9,70,30.17,10.0,Calm,Calm,-,N/A,,Clear,0,2013-02-21 07:35:00
2:55 AM,26.8,21.4,80,30.18,10.0,Calm,Calm,-,N/A,,Clear,0,2013-02-21 07:55:00
3:15 AM,26.4,21.2,81,30.18,10.0,Calm,Calm,-,N/A,,Clear,0,2013-02-21 08:15:00
3:35 AM,28.9,17.6,63,30.18,10.0,Calm,Calm,-,N/A,,Clear,0,2013-02-21 08:35:00
3:55 AM,27.7,18.9,69,30.19,10.0,Calm,Calm,-,N/A,,Clear,0,2013-02-21 08:55:00
4:15 AM,25.3,20.8,83,30.19,10.0,Calm,Calm,-,N/A,,Clear,0,2013-02-21 09:15:00
4:35 AM,25.3,20.7,82,30.19,10.0,Calm,Calm,-,N/A,,Clear,0,2013-02-21 09:35:00
4:55 AM,25.3,19.8,79,30.19,10.0,Calm,Calm,-,N/A,,Clear,0,2013-02-21 09:55:00
5:15 AM,24.8,20.8,85,30.20,10.0,Calm,Calm,-,N/A,,Clear,0,2013-02-21 10:15:00
5:35 AM,25.3,18.7,76,30.20,10.0,Calm,Calm,-,N/A,,Clear,0,2013-02-21 10:35:00
5:55 AM,23.7,21.2,90,30.20,10.0,Calm,Calm,-,N/A,,Clear,0,2013-02-21 10:55:00
6:15 AM,23.9,20.3,86,30.21,10.0,Calm,Calm,-,N/A,,Clear,0,2013-02-21 11:15:00
6:35 AM,23.7,20.1,86,30.22,10.0,Calm,Calm,-,N/A,,Clear,0,2013-02-21 11:35:00
6:55 AM,23.7,20.1,86,30.23,10.0,Calm,Calm,-,N/A,,Clear,0,2013-02-21 11:55:00
7:15 AM,22.8,19.2,86,30.24,10.0,Calm,Calm,-,N/A,,Clear,0,2013-02-21 12:15:00
7:35 AM,25.0,20.5,83,30.24,10.0,Calm,Calm,-,N/A,,Clear,0,2013-02-21 12:35:00
7:55 AM,26.8,23.5,88,30.25,10.0,Calm,Calm,-,N/A,,Clear,0,2013-02-21 12:55:00
8:15 AM,31.1,24.4,76,30.25,10.0,Calm,Calm,-,N/A,,Clear,0,2013-02-21 13:15:00
8:35 AM,34.3,21.2,59,30.25,10.0,NE,6.9,-,N/A,,Clear,50,2013-02-21 13:35:00
8:55 AM,36.3,18.9,49,30.26,10.0,ENE,5.8,-,N/A,,Clear,70,2013-02-21 13:55:00
9:15 AM,37.8,17.6,44,30.26,10.0,ENE,5.8,-,N/A,,Clear,70,2013-02-21 14:15:00
9:35 AM,39.4,16.7,40,30.26,10.0,NNE,6.9,-,N/A,,Clear,30,2013-02-21 14:35:00
9:55 AM,40.3,16.2,38,30.25,10.0,Calm,Calm,-,N/A,,Clear,0,2013-02-21 14:55:00
10:15 AM,41.7,16.9,37,30.25,10.0,NE,4.6,-,N/A,,Clear,50,2013-02-21 15:15:00
10:35 AM,43.9,17.4,35,30.25,10.0,ENE,4.6,-,N/A,,Clear,70,2013-02-21 15:35:00
10:55 AM,44.6,16.2,32,30.25,10.0,Calm,Calm,-,N/A,,Clear,0,2013-02-21 15:55:00
11:15 AM,47.5,18.7,32,30.24,10.0,Calm,Calm,-,N/A,,Clear,0,2013-02-21 16:15:00
11:35 AM,48.2,14.5,26,30.24,10.0,Calm,Calm,-,N/A,,Clear,0,2013-02-21 16:35:00
11:55 AM,49.3,15.8,26,30.23,10.0,NW,3.5,-,N/A,,Clear,310,2013-02-21 16:55:00
12:15 PM,51.1,16.9,26,30.22,10.0,Calm,Calm,-,N/A,,Clear,0,2013-02-21 17:15:00
12:35 PM,51.6,15.4,24,30.20,10.0,North,-9999.0,-,N/A,,Clear,0,2013-02-21 17:35:00
12:55 PM,52.5,17.1,25,30.19,10.0,North,3.5,-,N/A,,Clear,350,2013-02-21 17:55:00
1:15 PM,52.7,14.7,22,30.18,10.0,Calm,Calm,-,N/A,,Clear,0,2013-02-21 18:15:00
1:35 PM,52.9,15.1,22,30.17,10.0,Calm,Calm,-,N/A,,Clear,0,2013-02-21 18:35:00
1:55 PM,54.0,16.7,23,30.16,10.0,WNW,4.6,-,N/A,,Clear,300,2013-02-21 18:55:00
2:15 PM,54.7,17.4,23,30.16,10.0,Calm,Calm,-,N/A,,Clear,0,2013-02-21 19:15:00
2:35 PM,55.0,18.5,24,30.14,10.0,South,4.6,-,N/A,,Clear,170,2013-02-21 19:35:00
2:55 PM,55.0,17.2,23,30.14,10.0,Calm,Calm,-,N/A,,Clear,0,2013-02-21 19:55:00
3:15 PM,56.3,18.1,23,30.14,10.0,Calm,Calm,-,N/A,,Clear,0,2013-02-21 20:15:00
3:35 PM,55.9,17.8,22,30.15,10.0,East,4.6,-,N/A,,Clear,80,2013-02-21 20:35:00
3:55 PM,55.6,16.5,22,30.16,10.0,ENE,3.5,-,N/A,,Clear,60,2013-02-21 20:55:00
4:15 PM,55.4,17.1,22,30.16,10.0,Calm,Calm,-,N/A,,Clear,0,2013-02-21 21:15:00
4:35 PM,55.4,16.2,21,30.17,10.0,Calm,Calm,-,N/A,,Clear,0,2013-02-21 21:35:00
4:55 PM,55.4,17.2,22,30.16,10.0,Calm,Calm,-,N/A,,Clear,0,2013-02-21 21:55:00
5:15 PM,54.5,17.8,24,30.15,10.0,East,3.5,-,N/A,,Clear,90,2013-02-21 22:15:00
5:35 PM,52.7,20.1,28,30.16,10.0,Calm,Calm,-,N/A,,Clear,0,2013-02-21 22:35:00
5:55 PM,51.3,24.1,35,30.16,10.0,Calm,Calm,-,N/A,,Clear,0,2013-02-21 22:55:00
6:15 PM,48.0,28.9,48,30.16,10.0,Calm,Calm,-,N/A,,Clear,0,2013-02-21 23:15:00
6:35 PM,48.2,25.0,40,30.18,10.0,Calm,Calm,-,N/A,,Clear,0,2013-02-21 23:35:00
6:55 PM,46.6,27.9,48,30.19,10.0,Calm,Calm,-,N/A,,Clear,0,2013-02-21 23:55:00
7:15 PM,45.3,31.1,58,30.19,10.0,Calm,Calm,-,N/A,,Clear,0,2013-02-22 00:15:00
7:35 PM,45.1,30.2,56,30.19,10.0,Calm,Calm,-,N/A,,Clear,0,2013-02-22 00:35:00
7:55 PM,44.1,30.9,60,30.19,10.0,Calm,Calm,-,N/A,,Clear,0,2013-02-22 00:55:00
8:15 PM,43.3,31.6,63,30.18,10.0,Calm,Calm,-,N/A,,Clear,0,2013-02-22 01:15:00
8:35 PM,43.0,31.6,64,30.18,10.0,NE,4.6,-,N/A,,Clear,50,2013-02-22 01:35:00
8:55 PM,45.1,27.5,50,30.21,10.0,NE,4.6,-,N/A,,Clear,50,2013-02-22 01:55:00
9:15 PM,46.9,22.6,38,30.21,10.0,ENE,4.6,-,N/A,,Clear,60,2013-02-22 02:15:00
9:35 PM,47.5,20.8,35,30.22,10.0,ENE,4.6,-,N/A,,Clear,70,2013-02-22 02:35:00
9:55 PM,46.8,20.8,36,30.23,10.0,East,4.6,-,N/A,,Clear,80,2013-02-22 02:55:00
10:15 PM,47.3,20.8,35,30.24,10.0,NE,4.6,-,N/A,,Clear,50,2013-02-22 03:15:00
10:35 PM,47.3,20.7,35,30.26,10.0,Calm,Calm,-,N/A,,Mostly Cloudy,0,2013-02-22 03:35:00
10:55 PM,46.6,23.4,40,30.25,10.0,NE,4.6,-,N/A,,Overcast,40,2013-02-22 03:55:00
11:15 PM,45.1,25.3,46,30.25,10.0,ENE,5.8,-,N/A,Rain,Light Rain,70,2013-02-22 04:15:00
11:35 PM,45.1,24.8,45,30.27,10.0,Calm,Calm,-,N/A,,Unknown,0,2013-02-22 04:35:00
11:55 PM,44.6,25.5,47,30.27,10.0,ENE,5.8,-,N/A,Rain,Light Rain,60,2013-02-22 04:55:00